Flag for Austria Weather past 2 weeks in Schwechat, Lower Austria, Austria

Now
52 °F

Light rain. Passing clouds.


Feels Like: 48 °F
Forecast: 51 / 55 °F
Wind: 10 mph from Northwest

Location: Vienna Schwechat-Flughafen Airport

Current Time: May 23, 2015 at 1:46:43 AM

Latest Report: May 23, 2015 at 12:50 AM


Visibility: N/A

Pressure: 30.04 "Hg

Humidity: 94%

Dew point: 50 °F

Location of SchwechatLocation

Historic Weather in Schwechat — Graph

°F

Schwechat temperature yesterday

Maximum temperature yesterday: 59 °F (at 10:50 AM)
Minimum temperature yesterday: 52 °F (at 11:50 PM)
Average temperature yesterday: 55 °F

Past Weeks' High & Low Weather Summary

 TemperatureHumidityPressure
High75 °F (May 12, 2:20 PM)100% (May 16, 12:20 AM)30.39 "Hg (May 16, 12:20 AM)
Low43 °F (May 12, 12:20 AM)30% (May 11, 6:20 PM)29.71 "Hg (May 19, 4:50 AM)
Average60 °F66%30.05 "Hg
* Reported May 8 12:20 AM — May 23 12:50 AM, Schwechat, Weather by CustomWeather, © 2015

Note: Actual official high and low records may vary slightly from our data, if they occured in-between our weather recording intervals... More about our weather records

Advertising

Schwechat weather history for previous 24 hours

 ConditionsComfort  
Time TempWeatherWind HumidityBarometerVisibility
12:50 AM
Sat, May 23
52 °FLight rain. Passing clouds.10 mph94%30.04 "HgN/A
12:20 AM52 °FLight rain. Passing clouds.9 mph94%30.07 "HgN/A
11:50 PM
Fri, May 22
52 °FLight rain. Partly cloudy.10 mph94%30.07 "HgN/A
10:50 PM54 °FLight rain. Passing clouds.8 mph88%30.07 "HgN/A
10:20 PM54 °FLight rain. Passing clouds.9 mph88%30.07 "HgN/A
9:50 PM54 °FLight rain. Passing clouds.8 mph88%30.07 "HgN/A
9:20 PM54 °FLight rain. Partly sunny.7 mph88%30.09 "HgN/A
8:50 PM54 °FRain. Broken clouds.3 mph88%30.09 "Hg6 mi
8:20 PM54 °FLight rain. Broken clouds.5 mph94%30.09 "HgN/A
7:50 PM54 °FLight rain. Partly sunny.8 mph88%30.09 "HgN/A
7:20 PM54 °FLight rain. Partly sunny.10 mph88%30.09 "HgN/A
6:50 PM54 °FLight rain. Partly sunny.12 mph88%30.09 "HgN/A
6:20 PM54 °FLight rain. Partly sunny.10 mph94%30.09 "Hg5 mi
5:50 PM54 °FLight rain. Partly sunny.12 mph94%30.09 "Hg5 mi
5:20 PM54 °FRain. Partly sunny.13 mph88%30.12 "Hg5 mi
4:50 PM54 °FLight rain. Partly sunny.14 mph88%30.12 "Hg5 mi
4:20 PM54 °FLight rain. Partly sunny.15 mph88%30.12 "Hg4 mi
3:50 PM55 °FLight rain. Partly sunny.13 mph88%30.12 "Hg5 mi
3:20 PM55 °FRain. Broken clouds.12 mph88%30.12 "Hg5 mi
2:50 PM55 °FRain. Broken clouds.13 mph82%30.12 "Hg5 mi
2:20 PM55 °FLight rain. Broken clouds.12 mph82%30.15 "Hg6 mi
1:50 PM55 °FRain. Broken clouds.14 mph82%30.15 "Hg6 mi
1:20 PM55 °FLight rain. Broken clouds.15 mph77%30.15 "HgN/A
12:50 PM57 °FLight rain. Broken clouds.14 mph72%30.15 "HgN/A
12:20 PM57 °FLight rain. Broken clouds.15 mph72%30.15 "HgN/A
11:50 AM57 °FLight rain. Broken clouds.16 mph72%30.15 "HgN/A
11:20 AM57 °FLight rain. Broken clouds.18 mph72%30.15 "HgN/A
10:50 AM59 °FLight rain. Broken clouds.16 mph63%30.15 "HgN/A
10:20 AM57 °FBroken clouds.16 mph67%30.15 "HgN/A
9:50 AM57 °FSunny.16 mph67%30.15 "Hg10 mi
9:20 AM55 °FSunny.16 mph72%30.15 "Hg10 mi
8:50 AM55 °FSunny.17 mph67%30.18 "Hg10 mi
8:20 AM55 °FSunny.16 mph67%30.18 "Hg10 mi
7:50 AM55 °FSunny.15 mph67%30.18 "Hg10 mi
7:20 AM54 °FSunny.15 mph72%30.15 "Hg10 mi
6:50 AM54 °FPartly sunny.16 mph72%30.15 "HgN/A
6:20 AM54 °FPartly sunny.18 mph72%30.15 "HgN/A
5:50 AM54 °FPassing clouds.15 mph72%30.15 "HgN/A
5:20 AM54 °FPassing clouds.16 mph72%30.15 "HgN/A
4:50 AM54 °FPassing clouds.15 mph72%30.15 "HgN/A
4:20 AM54 °FPassing clouds.16 mph72%30.15 "HgN/A
3:50 AM54 °FPassing clouds.16 mph72%30.15 "HgN/A
3:20 AM55 °FPassing clouds.16 mph67%30.15 "HgN/A
2:50 AM55 °FPassing clouds.16 mph67%30.15 "HgN/A
2:20 AM55 °FPassing clouds.16 mph67%30.15 "HgN/A
1:50 AM55 °FPassing clouds.15 mph67%30.15 "HgN/A
1:20 AM55 °FPartly cloudy.16 mph67%30.15 "HgN/A
Weather by CustomWeather, © 2015

See weather overviewHow to use our weather pages